Regional Weather Roundup
Issued by NWS

Home | Current Version | Previous Version | Text Only | Print | Product List | Glossary On
Versions: 1 2 3 4 5 6 7 8 9 10 11 12 13 14 15 16 17 18 19 20 21 22 23 24 25 26 27 28 29 30 31 32 33 34 35 36 37 38 39 40 41 42 43 44 45 46 47 48 49 50
788
ASUS43 KDMX 231601
RWRIA

WEATHER ROUNDUP FOR IOWA
NATIONAL WEATHER SERVICE DES MOINES IA
1000 AM CST TUE JAN 23 2018

NOTE: "FAIR" INDICATES FEW OR NO CLOUDS BELOW 12,000 FEET WITH NO
SIGNIFICANT WEATHER AND/OR OBSTRUCTIONS TO VISIBILITY.

* - THESE STATIONS ARE NOT NWS STATIONS...THUS NOT UNDER NWS
QUALITY CONTROL.  THEY ALSO DO NOT REPORT WEATHER SUCH
AS PRECIPITATION OR FOG.

IAZ001>003-012>014-020>022-031>034-043>046-231700-
   NORTHWEST IOWA

CITY           SKY/WX    TMP DP  RH WIND       PRES   REMARKS
CARROLL *      CLOUDY    25  21  86 NW16      30.10R WCI  12
CHEROKEE *     CLOUDY    23  20  89 NW10      30.12R WCI  12
DENISON *      CLOUDY    23  21  93 NW13      30.14R WCI  11
LE MARS *      CLOUDY    23  21  93 N8        30.13R WCI  14
ORANGE CITY *  CLOUDY    21  21 100 NW9       30.11R WCI  11
SHELDON *      FLURRIES  21  19  93 N10       30.09R WCI  10
SIOUX CITY     FLURRIES  21  19  92 NW13      30.15R WCI   9
SPENCER        FLURRIES  23  18  81 N14       30.08R WCI  11
STORM LAKE *     N/A     21  19  93 NW10G17   30.09R WCI  10
$$

IAZ055>058-069>071-079>083-090>094-231700-
   SOUTHWEST IOWA

CITY           SKY/WX    TMP DP  RH WIND       PRES   REMARKS
ATLANTIC *     CLOUDY    25  23  93 NW14      30.13R WCI  13
AUDUBON *      CLOUDY    25  19  80 N12G18    30.11R WCI  14
CLARINDA *     CLOUDY    27  27 100 NW14      30.17  WCI  15
COUNCIL BLFS * CLOUDY    23  23 100 N10G16    30.15R WCI  12
CRESTON *      CLOUDY    25  23  93 NW20      30.11R WCI  11
HARLAN  *      CLOUDY    25  25 100 N14       30.16R WCI  13
LAMONI         CLOUDY    28  22  78 NW18G25   30.09R WCI  15
RED OAK *      CLOUDY    25  23  93 NW15      30.15R WCI  12
SHENANDOAH *   CLOUDY    27  23  86 NW10      30.18R WCI  17
$$

IAZ047>049-059>061-072>074-084-231700-
   CENTRAL IOWA

CITY           SKY/WX    TMP DP  RH WIND       PRES   REMARKS
AMES           CLOUDY    25  22  88 NW20G32   30.08R WCI  11
ANKENY *       CLOUDY    27  21  80 NW15G23   30.09R WCI  15
BOONE *        CLOUDY    25  19  80 NW15G21   30.07R WCI  12
CHARITON *     CLOUDY    27  23  86 NW20G28   30.06R WCI  13
DES MOINES     CLOUDY    26  20  77 NW18      30.08R WCI  13
GRINNELL*      CLOUDY    26  23  85 NW25      30.03R WCI  11
KNOXVILLE *    CLOUDY    27  21  80 NW22      30.05R WCI  12
MARSHALLTOWN   MOSUNNY   25  20  81 NW22      30.02R WCI  10
NEWTON *       CLOUDY    27  21  80 NW17G25   30.05R WCI  14
PELLA *        CLOUDY    28  22  79 NW21G29   30.06R WCI  14
$$

IAZ004>006-015-016-023>025-035-036-231700-
   NORTH CENTRAL IOWA

CITY           SKY/WX    TMP DP  RH WIND       PRES   REMARKS
CLARION *      CLOUDY    23  23 100 NW23      30.05R WCI   7
ESTHERVILLE    CLOUDY    20  17  88 N18       30.06R WCI   5
FORT DODGE *   CLOUDY    23  18  81 N13G22    30.09R WCI  11
MASON CITY     CLOUDY    20  15  81 N26       30.03R WCI   2
FOREST CITY *    N/A     23  19  86 NW12G21   30.04R WCI  12
WEBSTER CITY * CLOUDY    23  19  86 NW23      30.05R WCI   7
IOWA FALLS *   CLOUDY    24  20  83 NW24G32   30.03R WCI   8
$$

IAZ007>011-017>019-026>030-037>042-050>054-066-231700-
   NORTHEAST IOWA

CITY           SKY/WX    TMP DP  RH WIND       PRES   REMARKS
CEDAR RAPIDS   CLOUDY    28  22  78 NW23G30   29.95R WCI  14
CHARLES CITY * FLURRIES  21  21 100 N22       29.99R WCI   5
CLINTON *      CLOUDY    30  25  81 NW16      29.90R WCI  19
DECORAH *      CLOUDY    21  19  93 NW17G23   29.93R WCI   7
DUBUQUE        CLOUDY    27  23  85 NW15      29.89R WCI  15
MONTICELLO *   CLOUDY    28  25  86 NW14G22   29.92R WCI  17
OELWEIN *      CLOUDY    23  23 100 NW20      29.97R WCI   8
WATERLOO       CLOUDY    22  17  81 NW20      29.99R WCI   7
$$

IAZ064-065-067-068-078-231700-
   EAST CENTRAL IOWA

CITY           SKY/WX    TMP DP  RH WIND       PRES   REMARKS
DAVENPORT      CLOUDY    32  24  72 NW18G26   29.93R WCI  20
IOWA CITY      CLOUDY    31  23  72 NW16G26   29.97R WCI  20
MT. PLEASANT * CLOUDY    30  25  80 NW13G23   29.98R WCI  20
MUSCATINE *    CLOUDY    32  23  69 NW18G26   29.96R WCI  20
QUAD CITIES    CLOUDY    32  23  69 N16G29    29.92R WCI  21
$$

IAZ062-063-075>077-085>089-095>099-231700-
   SOUTHEAST IOWA

CITY           SKY/WX    TMP DP  RH WIND       PRES   REMARKS
BURLINGTON     CLOUDY    31  24  75 NW18G28   29.95R WCI  19
FAIRFIELD *    CLOUDY    30  25  80 NW22G29   29.99R WCI  17
FORT MADISON * CLOUDY    30  27  86 NW18G26   29.98R WCI  18
KEOKUK *       CLOUDY    32  27  80 NW13G28   29.98R WCI  22
OSKALOOSA *    CLOUDY    28  24  83 NW24      30.04R WCI  14
OTTUMWA        CLOUDY    29  22  75 NW24G36   30.02R WCI  15
WASHINGTON *   CLOUDY    30  27  86 NW23G29   29.99R WCI  17
$$

ABBREVIATIONS USED IN REMARKS
   TC - TEMPERATURES IN CELSIUS
  WCI - WIND CHILL INDEX
   HX - HEAT INDEX
  VSB - VISIBILITY
$$





USA.gov is the U.S. government's official web portal to all federal, state and local government web resources and services.